RADUGA-1 8 [-]

Last updated on Jan. 18, 2020, 4:38 a.m. UTC

1 34264U 09010A   20017.53388819 -.00000127  00000-0  00000-0 0  9995
2 34264   7.5285  60.6811 0013966 325.3004  10.6797  0.99815535 39784
UTC
Height (km)
Latitude
Longitude
Inclination
Orbital Period
UTC large
Height (km)
Speed (km/s)
/
Latitude / Longitude
Inclination (degrees)
Orbital Period (minutes)
Azimuth
Elevation
Range (km)
Doppler Factor
iOS Compass Heading
iOS Angle

Next 30 passes for location: Hong Kong

Rise time Rise Azimuth (degrees) Set time Set Azimuth (degrees) Duration Max altitude (degrees)

No matching passes for this satellites